| time (UTC) | temp F | wind direction | speed knots | gust knots | rain 1hr in | rain 24hr in | rain mn in | humidity % | barometer mb |
| 20260506225506 | 65 | 171 | 1.7 | 6.1 | 0.00 | 0.00 | 0.00 | 64 | 1019.7 |
| 20260506225007 | 65 | 151 | 1.7 | 7.8 | 0.00 | 0.00 | 0.00 | 65 | 1019.8 |
| 20260506224532 | 65 | 167 | 1.7 | 7.8 | 0.00 | 0.00 | 0.00 | 64 | 1019.9 |
| 20260506224006 | 64 | 225 | 1.7 | 5.2 | 0.00 | 0.00 | 0.00 | 67 | 1019.8 |
| 20260506223506 | 64 | 232 | 0.9 | 6.1 | 0.00 | 0.00 | 0.00 | 67 | 1019.9 |
| 20260506223026 | 64 | 133 | 1.7 | 6.1 | 0.00 | 0.00 | 0.00 | 69 | 1019.9 |
| 20260506222511 | 64 | 115 | 1.7 | 6.1 | 0.00 | 0.00 | 0.00 | 66 | 1020.1 |
| 20260506222010 | 64 | 233 | 1.7 | 7.0 | 0.00 | 0.00 | 0.00 | 68 | 1020.2 |
| 20260506221526 | 64 | 224 | 2.6 | 7.0 | 0.00 | 0.00 | 0.00 | 66 | 1020.3 |
| 20260506221010 | 64 | 153 | 3.5 | 7.0 | 0.00 | 0.00 | 0.00 | 66 | 1020.3 |
| 20260506220505 | 64 | 146 | 2.6 | 7.0 | 0.00 | 0.00 | 0.00 | 69 | 1020.4 |
| 20260506220034 | 64 | 148 | 2.6 | 7.0 | 0.00 | 0.00 | 0.00 | 67 | 1020.4 |
| 20260506215512 | 64 | 210 | 1.7 | 6.1 | 0.00 | 0.00 | 0.00 | 70 | 1020.4 |
| 20260506215009 | 64 | 215 | 2.6 | 6.1 | 0.00 | 0.00 | 0.00 | 70 | 1020.4 |
| 20260506214519 | 64 | 161 | 2.6 | 6.1 | 0.00 | 0.00 | 0.00 | 70 | 1020.4 |
| 20260506214006 | 64 | 94 | 1.7 | 6.1 | 0.00 | 0.00 | 0.00 | 70 | 1020.4 |
| 20260506213506 | 64 | 149 | 0.9 | 5.2 | 0.00 | 0.00 | 0.00 | 71 | 1020.5 |
| 20260506213016 | 63 | 200 | 1.7 | 5.2 | 0.00 | 0.00 | 0.00 | 73 | 1020.5 |
| 20260506212507 | 63 | 215 | 1.7 | 5.2 | 0.00 | 0.00 | 0.00 | 73 | 1020.5 |
| 20260506212011 | 62 | 240 | 0.9 | 5.2 | 0.00 | 0.00 | 0.00 | 75 | 1020.6 |
| 20260506211533 | 62 | 212 | 1.7 | 3.5 | 0.00 | 0.00 | 0.00 | 74 | 1020.5 |
| 20260506211009 | 62 | 92 | 0.9 | 2.6 | 0.00 | 0.00 | 0.00 | 74 | 1020.5 |
| 20260506210507 | 63 | 143 | 0.9 | 4.3 | 0.00 | 0.00 | 0.00 | 74 | 1020.6 |
| 20260506210031 | 62 | 114 | 0.9 | 4.3 | 0.00 | 0.00 | 0.00 | 75 | 1020.6 |
| 20260506205510 | 62 | 114 | 1.7 | 4.3 | 0.00 | 0.00 | 0.00 | 74 | 1020.7 |
| 20260506205007 | 62 | 189 | 0.0 | 2.6 | 0.00 | 0.00 | 0.00 | 76 | 1020.8 |
| 20260506204528 | 62 | 187 | 0.9 | 2.6 | 0.00 | 0.00 | 0.00 | 76 | 1020.8 |
| 20260506204008 | 61 | 139 | 0.9 | 3.5 | 0.00 | 0.00 | 0.00 | 77 | 1020.9 |
| 20260506203505 | 61 | 219 | 1.7 | 3.5 | 0.00 | 0.00 | 0.00 | 75 | 1020.9 |
| 20260506203031 | 60 | 188 | 0.9 | 2.6 | 0.00 | 0.00 | 0.00 | 77 | 1021.0 |
| 20260506202510 | 60 | 165 | 0.9 | 2.6 | 0.00 | 0.00 | 0.00 | 76 | 1020.9 |
| 20260506202012 | 60 | 188 | 0.9 | 4.3 | 0.00 | 0.00 | 0.00 | 76 | 1020.9 |
| 20260506201529 | 60 | 184 | 0.9 | 4.3 | 0.00 | 0.00 | 0.00 | 75 | 1020.8 |
| 20260506201007 | 61 | 148 | 0.9 | 2.6 | 0.00 | 0.00 | 0.00 | 77 | 1020.7 |
| 20260506200510 | 61 | 130 | 0.9 | 3.5 | 0.00 | 0.00 | 0.00 | 78 | 1020.7 |
| 20260506200023 | 60 | 217 | 0.9 | 4.3 | 0.00 | 0.00 | 0.00 | 76 | 1020.7 |
| 20260506195509 | 60 | 175 | 1.7 | 4.3 | 0.00 | 0.00 | 0.00 | 76 | 1020.8 |
| 20260506195010 | 60 | 215 | 0.9 | 4.3 | 0.00 | 0.00 | 0.00 | 76 | 1020.7 |
| 20260506194528 | 61 | 215 | 1.7 | 4.3 | 0.00 | 0.00 | 0.00 | 76 | 1020.7 |
| 20260506194007 | 61 | 200 | 1.7 | 6.1 | 0.00 | 0.00 | 0.00 | 75 | 1020.8 |
| 20260506193511 | 61 | 215 | 2.6 | 6.1 | 0.00 | 0.00 | 0.00 | 75 | 1020.9 |
| 20260506193028 | 61 | 196 | 2.6 | 6.1 | 0.00 | 0.00 | 0.00 | 76 | 1020.9 |
| 20260506192507 | 61 | 200 | 2.6 | 6.1 | 0.00 | 0.00 | 0.00 | 75 | 1020.8 |
| 20260506192010 | 61 | 217 | 2.6 | 5.2 | 0.00 | 0.00 | 0.00 | 75 | 1020.7 |
| 20260506191527 | 61 | 236 | 2.6 | 5.2 | 0.00 | 0.00 | 0.00 | 75 | 1020.7 |
| 20260506191011 | 62 | 229 | 2.6 | 5.2 | 0.00 | 0.00 | 0.00 | 76 | 1020.8 |
| 20260506190506 | 62 | 231 | 2.6 | 5.2 | 0.00 | 0.00 | 0.00 | 75 | 1020.7 |
| 20260506190031 | 62 | 218 | 0.9 | 3.5 | 0.00 | 0.00 | 0.00 | 75 | 1020.7 |
| 20260506185510 | 62 | 223 | 0.9 | 3.5 | 0.00 | 0.00 | 0.00 | 78 | 1020.6 |
| 20260506185011 | 62 | 83 | 0.9 | 3.5 | 0.00 | 0.00 | 0.00 | 77 | 1020.5 |
| 20260506184524 | 61 | 69 | 0.9 | 2.6 | 0.00 | 0.00 | 0.00 | 81 | 1020.5 |
| 20260506184009 | 60 | 129 | 0.9 | 2.6 | 0.00 | 0.00 | 0.00 | 80 | 1020.6 |
| 20260506183511 | 60 | 46 | 0.9 | 2.6 | 0.00 | 0.00 | 0.00 | 79 | 1020.6 |
| 20260506183024 | 60 | 47 | 0.9 | 3.5 | 0.00 | 0.00 | 0.00 | 79 | 1020.6 |
| 20260506182508 | 60 | 159 | 0.9 | 4.3 | 0.00 | 0.00 | 0.00 | 80 | 1020.6 |
| 20260506182012 | 60 | 111 | 1.7 | 5.2 | 0.00 | 0.00 | 0.00 | 80 | 1020.6 |
| 20260506181526 | 60 | 206 | 1.7 | 5.2 | 0.00 | 0.00 | 0.00 | 80 | 1020.6 |
| 20260506181010 | 60 | 119 | 1.7 | 5.2 | 0.00 | 0.00 | 0.00 | 80 | 1020.6 |
| 20260506180509 | 60 | 84 | 2.6 | 5.2 | 0.00 | 0.00 | 0.00 | 80 | 1020.5 |
| 20260506180032 | 59 | 109 | 1.7 | 3.5 | 0.00 | 0.00 | 0.00 | 82 | 1020.6 |
| 20260506175507 | 59 | 38 | 0.9 | 2.6 | 0.00 | 0.00 | 0.00 | 81 | 1020.6 |
| 20260506175010 | 59 | 84 | 0.0 | 2.6 | 0.00 | 0.00 | 0.00 | 82 | 1020.7 |
| 20260506174532 | 59 | 96 | 0.9 | 3.5 | 0.00 | 0.00 | 0.00 | 82 | 1020.7 |
| 20260506174011 | 59 | 200 | 0.9 | 3.5 | 0.00 | 0.00 | 0.00 | 83 | 1020.7 |
| 20260506173510 | 58 | 67 | 1.7 | 3.5 | 0.00 | 0.00 | 0.00 | 83 | 1020.6 |
| 20260506173030 | 58 | 93 | 0.0 | 3.5 | 0.00 | 0.00 | 0.00 | 83 | 1020.6 |
| 20260506172507 | 58 | 186 | 0.9 | 3.5 | 0.00 | 0.00 | 0.00 | 82 | 1020.6 |
| 20260506172009 | 58 | 219 | 0.9 | 2.6 | 0.00 | 0.00 | 0.00 | 82 | 1020.5 |
| 20260506171537 | 58 | 246 | 0.9 | 2.6 | 0.00 | 0.00 | 0.00 | 83 | 1020.6 |
| 20260506171008 | 58 | 209 | 0.9 | 1.7 | 0.00 | 0.00 | 0.00 | 83 | 1020.6 |
| 20260506170514 | 58 | 154 | 0.9 | 1.7 | 0.00 | 0.00 | 0.00 | 84 | 1020.4 |
| 20260506170024 | 58 | 81 | 0.0 | 1.7 | 0.00 | 0.00 | 0.00 | 83 | 1020.4 |
| 20260506165508 | 58 | 68 | 0.9 | 1.7 | 0.00 | 0.00 | 0.00 | 84 | 1020.4 |
| 20260506165009 | 58 | 150 | 0.0 | 1.7 | 0.00 | 0.00 | 0.00 | 84 | 1020.5 |
| 20260506164528 | 58 | 173 | 0.9 | 1.7 | 0.00 | 0.00 | 0.00 | 84 | 1020.5 |
| 20260506164009 | 58 | 111 | 0.9 | 2.6 | 0.00 | 0.00 | 0.00 | 84 | 1020.5 |
| 20260506163511 | 57 | 171 | 0.9 | 2.6 | 0.00 | 0.00 | 0.00 | 84 | 1020.4 |
| 20260506163025 | 57 | 164 | 1.7 | 2.6 | 0.00 | 0.00 | 0.00 | 84 | 1020.5 |
| 20260506162508 | 57 | 169 | 0.9 | 1.7 | 0.00 | 0.00 | 0.00 | 84 | 1020.5 |
| 20260506162015 | 57 | 165 | 0.9 | 1.7 | 0.00 | 0.00 | 0.00 | 84 | 1020.5 |
| 20260506161525 | 57 | 231 | 0.0 | 1.7 | 0.00 | 0.00 | 0.00 | 85 | 1020.4 |
| 20260506161008 | 57 | 237 | 0.0 | 1.7 | 0.00 | 0.00 | 0.00 | 85 | 1020.4 |
| 20260506160508 | 57 | 258 | 0.9 | 1.7 | 0.00 | 0.00 | 0.00 | 85 | 1020.3 |
| 20260506160031 | 57 | 257 | 0.9 | 1.7 | 0.00 | 0.00 | 0.00 | 85 | 1020.1 |
| 20260506155508 | 57 | 176 | 0.9 | 1.7 | 0.00 | 0.00 | 0.00 | 87 | 1020.0 |
| 20260506155010 | 56 | 188 | 0.9 | 2.6 | 0.00 | 0.00 | 0.00 | 87 | 1020.0 |
| 20260506154529 | 56 | 261 | 0.0 | 2.6 | 0.00 | 0.00 | 0.00 | 87 | 1019.9 |
| 20260506154012 | 56 | 193 | 0.9 | 2.6 | 0.00 | 0.00 | 0.00 | 86 | 1019.8 |
| 20260506153513 | 56 | 219 | 0.0 | 1.7 | 0.00 | 0.00 | 0.00 | 87 | 1019.8 |
| 20260506153024 | 56 | 71 | 0.9 | 2.6 | 0.00 | 0.00 | 0.00 | 88 | 1020.0 |
| 20260506152513 | 56 | 323 | 0.0 | 3.5 | 0.00 | 0.00 | 0.00 | 87 | 1020.0 |
| 20260506152011 | 55 | 223 | 0.9 | 3.5 | 0.00 | 0.00 | 0.00 | 88 | 1020.1 |
| 20260506151526 | 55 | 37 | 0.0 | 1.7 | 0.00 | 0.00 | 0.00 | 87 | 1020.3 |
| 20260506151010 | 55 | 159 | 0.9 | 1.7 | 0.00 | 0.00 | 0.00 | 88 | 1020.3 |
| 20260506150513 | 55 | 215 | 0.0 | 1.7 | 0.00 | 0.00 | 0.00 | 87 | 1020.5 |
| 20260506150028 | 55 | 130 | 0.0 | 1.7 | 0.00 | 0.00 | 0.00 | 87 | 1020.4 |
| 20260506145508 | 55 | 302 | 0.0 | 1.7 | 0.00 | 0.00 | 0.00 | 87 | 1020.4 |
| 20260506145007 | 55 | 269 | 0.0 | 1.7 | 0.00 | 0.00 | 0.00 | 87 | 1020.3 |
| 20260506144527 | 55 | 220 | 0.0 | 1.7 | 0.00 | 0.00 | 0.00 | 87 | 1020.2 |
| 20260506144013 | 55 | 184 | 0.9 | 1.7 | 0.00 | 0.00 | 0.00 | 87 | 1020.1 |
| 20260506143509 | 55 | 187 | 0.0 | 1.7 | 0.00 | 0.00 | 0.00 | 88 | 1020.1 |
| 20260506143028 | 55 | 187 | 0.0 | 1.7 | 0.00 | 0.00 | 0.00 | 88 | 1020.1 |
| 20260506142513 | 55 | 240 | 0.0 | 1.7 | 0.00 | 0.00 | 0.00 | 88 | 1020.2 |
| 20260506142012 | 55 | 229 | 0.9 | 1.7 | 0.00 | 0.00 | 0.00 | 88 | 1019.9 |
| 20260506141528 | 55 | 234 | 0.9 | 1.7 | 0.00 | 0.00 | 0.00 | 88 | 1019.8 |
| 20260506141010 | 55 | 244 | 0.0 | 1.7 | 0.00 | 0.00 | 0.00 | 90 | 1019.7 |
| 20260506140507 | 55 | 243 | 0.0 | 1.7 | 0.00 | 0.00 | 0.00 | 90 | 1019.5 |
| 20260506140034 | 55 | 259 | 0.0 | 1.7 | 0.00 | 0.00 | 0.00 | 90 | 1019.6 |
| 20260506135507 | 55 | 259 | 0.0 | 0.9 | 0.00 | 0.00 | 0.00 | 91 | 1019.7 |
| 20260506135009 | 55 | 259 | 0.0 | 1.7 | 0.00 | 0.00 | 0.00 | 91 | 1019.6 |
| 20260506134525 | 55 | 260 | 0.9 | 1.7 | 0.00 | 0.00 | 0.00 | 91 | 1019.4 |
| 20260506134014 | 55 | 228 | 0.0 | 1.7 | 0.00 | 0.00 | 0.00 | 90 | 1019.3 |
| 20260506133510 | 55 | 228 | 0.0 | 1.7 | 0.00 | 0.00 | 0.00 | 91 | 1019.3 |
| 20260506133030 | 55 | 228 | 0.0 | 1.7 | 0.00 | 0.00 | 0.00 | 90 | 1019.3 |
| 20260506132515 | 55 | 228 | 0.0 | 1.7 | 0.00 | 0.00 | 0.00 | 91 | 1019.3 |
| 20260506132008 | 55 | 228 | 0.0 | 1.7 | 0.00 | 0.00 | 0.00 | 90 | 1019.2 |
| 20260506131510 | 55 | 230 | 0.0 | 1.7 | 0.00 | 0.00 | 0.00 | 90 | 1019.2 |
| 20260506131003 | 55 | 238 | 0.0 | 1.7 | 0.00 | 0.00 | 0.00 | 90 | 1019.2 |
| 20260506130506 | 55 | 236 | 0.0 | 1.7 | 0.00 | 0.00 | 0.00 | 90 | 1019.1 |
| 20260506130012 | 55 | 234 | 0.0 | 1.7 | 0.00 | 0.00 | 0.00 | 90 | 1019.0 |
| 20260506125503 | 55 | 234 | 0.0 | 1.7 | 0.00 | 0.00 | 0.00 | 90 | 1019.0 |
| 20260506125005 | 55 | 234 | 0.0 | 1.7 | 0.00 | 0.00 | 0.00 | 89 | 1019.0 |
| 20260506124516 | 55 | 234 | 0.0 | 1.7 | 0.00 | 0.00 | 0.00 | 89 | 1018.9 |
| 20260506124003 | 55 | 234 | 0.0 | 1.7 | 0.00 | 0.00 | 0.00 | 89 | 1018.9 |
| 20260506123504 | 55 | 234 | 0.0 | 1.7 | 0.00 | 0.00 | 0.00 | 89 | 1018.8 |
| 20260506123014 | 55 | 234 | 0.9 | 1.7 | 0.00 | 0.00 | 0.00 | 89 | 1018.9 |
| 20260506122504 | 55 | 263 | 0.0 | 1.7 | 0.00 | 0.00 | 0.00 | 89 | 1018.9 |
| 20260506122011 | 55 | 264 | 0.9 | 1.7 | 0.00 | 0.00 | 0.00 | 89 | 1018.9 |
| 20260506121509 | 55 | 260 | 0.0 | 1.7 | 0.00 | 0.00 | 0.00 | 89 | 1018.9 |
| 20260506121008 | 55 | 260 | 0.0 | 1.7 | 0.00 | 0.00 | 0.00 | 90 | 1018.9 |
| 20260506120508 | 55 | 260 | 0.0 | 1.7 | 0.00 | 0.00 | 0.00 | 89 | 1018.9 |
| 20260506120009 | 55 | 260 | 0.0 | 1.7 | 0.00 | 0.00 | 0.00 | 89 | 1018.9 |
| 20260506115504 | 55 | 260 | 0.0 | 1.7 | 0.00 | 0.00 | 0.00 | 89 | 1019.0 |
| 20260506115009 | 55 | 260 | 0.0 | 1.7 | 0.00 | 0.00 | 0.00 | 89 | 1018.8 |
| 20260506114531 | 55 | 260 | 0.0 | 1.7 | 0.00 | 0.00 | 0.00 | 90 | 1018.8 |
| 20260506114007 | 55 | 260 | 0.0 | 1.7 | 0.00 | 0.00 | 0.00 | 90 | 1018.7 |
| 20260506113508 | 55 | 260 | 0.0 | 1.7 | 0.00 | 0.00 | 0.00 | 89 | 1018.7 |
| 20260506113014 | 55 | 260 | 0.0 | 1.7 | 0.00 | 0.00 | 0.00 | 89 | 1018.7 |
| 20260506112504 | 55 | 260 | 0.0 | 1.7 | 0.00 | 0.00 | 0.00 | 89 | 1018.6 |
| 20260506112006 | 55 | 260 | 0.0 | 1.7 | 0.00 | 0.00 | 0.00 | 89 | 1018.6 |
| 20260506111513 | 55 | 260 | 0.0 | 1.7 | 0.00 | 0.00 | 0.00 | 90 | 1018.6 |
| 20260506111010 | 55 | 260 | 0.0 | 1.7 | 0.00 | 0.00 | 0.00 | 89 | 1018.5 |
| 20260506110505 | 55 | 260 | 0.0 | 1.7 | 0.00 | 0.00 | 0.00 | 90 | 1018.5 |
| 20260506110020 | 55 | 260 | 0.0 | 1.7 | 0.00 | 0.00 | 0.00 | 89 | 1018.5 |
| 20260506105508 | 55 | 260 | 0.0 | 1.7 | 0.00 | 0.00 | 0.00 | 90 | 1018.4 |
| 20260506105009 | 55 | 260 | 0.0 | 1.7 | 0.00 | 0.00 | 0.00 | 90 | 1018.3 |
| 20260506104514 | 56 | 260 | 0.0 | 1.7 | 0.00 | 0.00 | 0.00 | 90 | 1018.2 |
| 20260506104008 | 56 | 260 | 0.0 | 1.7 | 0.00 | 0.00 | 0.00 | 90 | 1018.2 |
| 20260506103509 | 55 | 260 | 0.0 | 1.7 | 0.00 | 0.00 | 0.00 | 89 | 1018.2 |
| 20260506103008 | 56 | 260 | 0.0 | 1.7 | 0.00 | 0.00 | 0.00 | 89 | 1018.0 |
| 20260506102508 | 56 | 260 | 0.0 | 1.7 | 0.00 | 0.00 | 0.00 | 89 | 1018.0 |
| 20260506102011 | 56 | 260 | 0.0 | 1.7 | 0.00 | 0.00 | 0.00 | 89 | 1017.9 |
| 20260506101517 | 56 | 260 | 0.0 | 1.7 | 0.00 | 0.00 | 0.00 | 89 | 1017.8 |
| 20260506101007 | 56 | 260 | 0.0 | 0.9 | 0.00 | 0.00 | 0.00 | 89 | 1017.8 |
| 20260506100506 | 56 | 260 | 0.0 | 1.7 | 0.00 | 0.00 | 0.00 | 90 | 1017.8 |
| 20260506100021 | 56 | 260 | 0.0 | 1.7 | 0.00 | 0.00 | 0.00 | 88 | 1017.7 |
| 20260506095506 | 56 | 260 | 0.0 | 1.7 | 0.00 | 0.00 | 0.00 | 88 | 1017.7 |
| 20260506095009 | 56 | 260 | 0.0 | 1.7 | 0.00 | 0.00 | 0.00 | 88 | 1017.7 |
| 20260506094516 | 56 | 260 | 0.0 | 1.7 | 0.00 | 0.00 | 0.00 | 88 | 1017.8 |
| 20260506094006 | 56 | 260 | 0.0 | 1.7 | 0.00 | 0.00 | 0.00 | 88 | 1017.8 |
| 20260506093503 | 56 | 260 | 0.0 | 1.7 | 0.00 | 0.00 | 0.00 | 88 | 1017.7 |
| 20260506093017 | 56 | 260 | 0.0 | 1.7 | 0.00 | 0.00 | 0.00 | 88 | 1017.7 |
| 20260506092509 | 56 | 260 | 0.0 | 1.7 | 0.00 | 0.00 | 0.00 | 88 | 1017.7 |
| 20260506092008 | 56 | 260 | 0.0 | 1.7 | 0.00 | 0.00 | 0.00 | 88 | 1017.7 |
| 20260506091513 | 56 | 260 | 0.0 | 1.7 | 0.00 | 0.00 | 0.00 | 88 | 1017.7 |
| 20260506091008 | 56 | 260 | 0.0 | 1.7 | 0.00 | 0.00 | 0.00 | 88 | 1017.7 |
| 20260506090510 | 56 | 260 | 0.0 | 1.7 | 0.00 | 0.00 | 0.00 | 88 | 1017.6 |
| 20260506090013 | 56 | 260 | 0.0 | 1.7 | 0.00 | 0.00 | 0.00 | 88 | 1017.7 |
| 20260506085506 | 56 | 260 | 0.0 | 1.7 | 0.00 | 0.00 | 0.00 | 88 | 1017.7 |
| 20260506085006 | 56 | 260 | 0.0 | 1.7 | 0.00 | 0.00 | 0.00 | 88 | 1017.7 |
| 20260506084514 | 56 | 260 | 0.0 | 1.7 | 0.00 | 0.00 | 0.00 | 88 | 1017.7 |
| 20260506084006 | 56 | 260 | 0.0 | 1.7 | 0.00 | 0.00 | 0.00 | 88 | 1017.6 |
| 20260506083508 | 57 | 260 | 0.0 | 1.7 | 0.00 | 0.00 | 0.00 | 89 | 1017.6 |
| 20260506083015 | 57 | 260 | 0.0 | 1.7 | 0.00 | 0.00 | 0.00 | 1017.5 | |
| 20260506082505 | 57 | 260 | 0.0 | 0.9 | 0.00 | 0.00 | 0.00 | 1017.5 | |
| 20260506082006 | 57 | 260 | 0.0 | 1.7 | 0.00 | 0.00 | 0.00 | 88 | 1017.5 |
| 20260506081515 | 57 | 260 | 0.0 | 1.7 | 0.00 | 0.00 | 0.00 | 88 | 1017.5 |
| 20260506081013 | 57 | 260 | 0.0 | 1.7 | 0.00 | 0.00 | 0.00 | 87 | 1017.4 |
| 20260506080507 | 57 | 260 | 0.0 | 1.7 | 0.00 | 0.00 | 0.00 | 88 | 1017.4 |
| 20260506073509 | 57 | 260 | 0.0 | 0.9 | 0.00 | 0.00 | 0.00 | 88 | 1017.2 |
| 20260506073016 | 57 | 260 | 0.0 | 0.9 | 0.00 | 0.00 | 0.00 | 88 | 1017.2 |
| 20260506072508 | 57 | 260 | 0.0 | 1.7 | 0.00 | 0.00 | 0.00 | 89 | 1017.2 |
| 20260506072008 | 57 | 260 | 0.0 | 1.7 | 0.00 | 0.00 | 0.00 | 88 | 1017.1 |
| 20260506071511 | 57 | 260 | 0.0 | 1.7 | 0.00 | 0.00 | 0.00 | 88 | 1017.1 |
| 20260506071005 | 57 | 260 | 0.9 | 1.7 | 0.00 | 0.00 | 0.00 | 89 | 1016.9 |
| 20260506070502 | 57 | 260 | 0.0 | 1.7 | 0.00 | 0.00 | 0.00 | 88 | 1016.9 |
| 20260506062503 | 57 | 261 | 0.9 | 1.7 | 0.00 | 0.00 | 0.00 | 88 | 1016.8 |
| 20260506062007 | 57 | 245 | 0.0 | 1.7 | 0.00 | 0.00 | 0.00 | 88 | 1016.7 |
| 20260506061512 | 57 | 245 | 0.0 | 1.7 | 0.00 | 0.00 | 0.00 | 88 | 1016.8 |
| 20260506061003 | 57 | 245 | 0.0 | 1.7 | 0.00 | 0.00 | 0.00 | 88 | 1016.7 |
| 20260506060504 | 57 | 248 | 0.0 | 0.9 | 0.00 | 0.00 | 0.00 | 88 | 1016.7 |
| 20260506051006 | 57 | 239 | 0.0 | 0.9 | 0.00 | 0.00 | 0.00 | 87 | 1016.6 |
| 20260506050505 | 57 | 239 | 0.9 | 0.9 | 0.00 | 0.00 | 0.00 | 87 | 1016.4 |
| 20260506045007 | 58 | 239 | 0.0 | 1.7 | 0.00 | 0.00 | 0.00 | 87 | 1016.3 |
| 20260506044526 | 58 | 244 | 0.0 | 1.7 | 0.00 | 0.00 | 0.00 | 87 | 1016.3 |
| 20260506044002 | 58 | 244 | 0.9 | 0.9 | 0.00 | 0.00 | 0.00 | 87 | 1016.2 |
| 20260506043507 | 58 | 248 | 0.0 | 0.9 | 0.00 | 0.00 | 0.00 | 86 | 1016.2 |
| 20260506043014 | 58 | 257 | 0.0 | 0.9 | 0.00 | 0.00 | 0.00 | 1016.1 | |
| 20260506042512 | 58 | 259 | 0.0 | 1.7 | 0.00 | 0.00 | 0.00 | 86 | 1016.1 |
| 20260506042007 | 58 | 244 | 0.9 | 1.7 | 0.00 | 0.00 | 0.00 | 86 | 1016.1 |
| 20260506041514 | 58 | 242 | 0.0 | 1.7 | 0.00 | 0.00 | 0.00 | 86 | 1016.0 |
| 20260506041006 | 58 | 250 | 0.9 | 1.7 | 0.00 | 0.00 | 0.00 | 85 | 1016.0 |
| 20260506040513 | 58 | 242 | 0.0 | 1.7 | 0.00 | 0.00 | 0.00 | 85 | 1016.0 |
| 20260506040015 | 58 | 250 | 0.9 | 1.7 | 0.00 | 0.00 | 0.00 | 85 | 1015.9 |
| 20260506035506 | 58 | 250 | 0.9 | 1.7 | 0.00 | 0.00 | 0.00 | 85 | 1015.9 |
| 20260506035007 | 58 | 254 | 0.9 | 1.7 | 0.00 | 0.00 | 0.00 | 85 | 1015.8 |
| 20260506034509 | 58 | 262 | 0.9 | 1.7 | 0.00 | 0.00 | 0.00 | 84 | 1015.7 |
| 20260506034008 | 58 | 262 | 0.9 | 0.9 | 0.00 | 0.00 | 0.00 | 84 | 1015.6 |
| 20260506033506 | 58 | 264 | 0.9 | 0.9 | 0.00 | 0.00 | 0.00 | 84 | 1015.5 |
| 20260506033014 | 58 | 264 | 0.9 | 0.9 | 0.00 | 0.00 | 0.00 | 82 | 1015.5 |
| 20260506032508 | 59 | 267 | 0.9 | 1.7 | 0.00 | 0.00 | 0.00 | 82 | 1015.5 |
| 20260506032008 | 59 | 265 | 0.0 | 1.7 | 0.00 | 0.00 | 0.00 | 82 | 1015.4 |
| 20260506031528 | 59 | 265 | 0.0 | 1.7 | 0.00 | 0.00 | 0.00 | 82 | 1015.4 |
| 20260506031005 | 59 | 265 | 0.0 | 1.7 | 0.00 | 0.00 | 0.00 | 82 | 1015.3 |
| 20260506030510 | 59 | 265 | 0.0 | 1.7 | 0.00 | 0.00 | 0.00 | 81 | 1015.3 |
| 20260506030035 | 59 | 265 | 0.0 | 0.9 | 0.00 | 0.00 | 0.00 | 80 | 1015.3 |
| 20260506025507 | 60 | 265 | 0.9 | 1.7 | 0.00 | 0.00 | 0.00 | 80 | 1015.2 |
| 20260506025008 | 60 | 257 | 0.0 | 1.7 | 0.00 | 0.00 | 0.00 | 77 | 1015.2 |
| 20260506024521 | 60 | 225 | 0.0 | 1.7 | 0.00 | 0.00 | 0.00 | 77 | 1015.2 |
| 20260506024007 | 61 | 241 | 0.9 | 1.7 | 0.00 | 0.00 | 0.00 | 77 | 1015.2 |
| 20260506023504 | 61 | 232 | 0.0 | 1.7 | 0.00 | 0.00 | 0.00 | 77 | 1015.1 |
| 20260506023013 | 61 | 228 | 0.0 | 1.7 | 0.00 | 0.00 | 0.00 | 76 | 1015.1 |
| 20260506022507 | 61 | 211 | 0.9 | 1.7 | 0.00 | 0.00 | 0.00 | 76 | 1015.1 |
| 20260506022008 | 61 | 219 | 0.9 | 1.7 | 0.00 | 0.00 | 0.00 | 76 | 1015.1 |
| 20260506021513 | 61 | 232 | 0.0 | 1.7 | 0.00 | 0.00 | 0.00 | 76 | 1015.0 |
| 20260506021005 | 61 | 232 | 0.0 | 2.6 | 0.00 | 0.00 | 0.00 | 76 | 1015.1 |
| 20260506020510 | 61 | 211 | 0.9 | 2.6 | 0.00 | 0.00 | 0.00 | 75 | 1015.1 |
| 20260506020016 | 61 | 226 | 0.0 | 1.7 | 0.00 | 0.00 | 0.00 | 76 | 1015.1 |
| 20260506015507 | 61 | 202 | 0.0 | 2.6 | 0.00 | 0.00 | 0.00 | 76 | 1015.1 |
| 20260506015010 | 61 | 225 | 0.9 | 2.6 | 0.00 | 0.00 | 0.00 | 75 | 1015.1 |
| 20260506014514 | 61 | 63 | 0.9 | 2.6 | 0.00 | 0.00 | 0.00 | 75 | 1015.1 |
| 20260506014004 | 61 | 235 | 0.9 | 2.6 | 0.00 | 0.00 | 0.00 | 76 | 1015.1 |
| 20260506013506 | 61 | 213 | 0.9 | 2.6 | 0.00 | 0.00 | 0.00 | 75 | 1015.1 |
| 20260506013016 | 61 | 37 | 0.9 | 2.6 | 0.00 | 0.00 | 0.00 | 75 | 1015.1 |
| 20260506012507 | 62 | 217 | 0.9 | 2.6 | 0.00 | 0.00 | 0.00 | 74 | 1015.1 |
| 20260506012009 | 62 | 44 | 0.0 | 3.5 | 0.00 | 0.00 | 0.00 | 74 | 1015.1 |
| 20260506011517 | 62 | 208 | 0.0 | 3.5 | 0.00 | 0.00 | 0.00 | 73 | 1015.1 |
| 20260506011011 | 62 | 130 | 0.9 | 2.6 | 0.00 | 0.00 | 0.00 | 73 | 1015.2 |
| 20260506010507 | 62 | 98 | 0.9 | 1.7 | 0.00 | 0.00 | 0.00 | 74 | 1015.1 |
| 20260506010015 | 62 | 65 | 0.9 | 1.7 | 0.00 | 0.00 | 0.00 | 73 | 1015.1 |
| 20260506005507 | 62 | 229 | 0.9 | 2.6 | 0.00 | 0.00 | 0.00 | 73 | 1015.1 |
| 20260506005008 | 62 | 167 | 0.9 | 3.5 | 0.00 | 0.00 | 0.00 | 74 | 1015.2 |
| 20260506004525 | 62 | 215 | 0.9 | 3.5 | 0.00 | 0.00 | 0.00 | 75 | 1015.2 |
| 20260506004006 | 62 | 212 | 0.9 | 2.6 | 0.00 | 0.00 | 0.00 | 74 | 1015.2 |
| 20260506003511 | 62 | 227 | 0.9 | 3.5 | 0.00 | 0.00 | 0.00 | 74 | 1015.2 |
| 20260506003012 | 62 | 172 | 0.9 | 3.5 | 0.00 | 0.00 | 0.00 | 73 | 1015.2 |
| 20260506002506 | 62 | 191 | 0.9 | 2.6 | 0.00 | 0.00 | 0.00 | 73 | 1015.2 |
| 20260506002012 | 62 | 160 | 0.9 | 5.2 | 0.00 | 0.00 | 0.00 | 73 | 1015.2 |
| 20260506001515 | 62 | 186 | 2.6 | 5.2 | 0.00 | 0.00 | 0.00 | 72 | 1015.2 |
| 20260506001006 | 62 | 216 | 0.9 | 2.6 | 0.00 | 0.00 | 0.00 | 74 | 1015.2 |
| 20260506000513 | 62 | 134 | 0.9 | 2.6 | 0.00 | 0.00 | 0.00 | 74 | 1015.2 |
| 20260506000018 | 62 | 44 | 0.9 | 2.6 | 0.00 | 0.00 | 0.00 | 73 | 1015.3 |
| 20260505235506 | 62 | 234 | 0.9 | 3.5 | 0.00 | 0.00 | 0.00 | 73 | 1015.3 |
| 20260505235007 | 62 | 76 | 0.9 | 3.5 | 0.00 | 0.00 | 0.00 | 73 | 1015.4 |
| 20260505234515 | 62 | 210 | 0.0 | 2.6 | 0.00 | 0.00 | 0.00 | 74 | 1015.4 |
| 20260505234006 | 62 | 215 | 0.9 | 4.3 | 0.00 | 0.00 | 0.00 | 75 | 1015.4 |
| 20260505233509 | 62 | 179 | 1.7 | 5.2 | 0.00 | 0.00 | 0.00 | 72 | 1015.5 |
| 20260505233016 | 62 | 234 | 1.7 | 5.2 | 0.00 | 0.00 | 0.00 | 73 | 1015.5 |
| 20260505232507 | 62 | 177 | 1.7 | 5.2 | 0.00 | 0.00 | 0.00 | 74 | 1015.5 |
| 20260505232006 | 62 | 159 | 1.7 | 5.2 | 0.00 | 0.00 | 0.00 | 72 | 1015.5 |
| 20260505231522 | 62 | 187 | 1.7 | 4.3 | 0.00 | 0.00 | 0.00 | 72 | 1015.5 |
| 20260505231013 | 62 | 213 | 1.7 | 3.5 | 0.00 | 0.00 | 0.00 | 73 | 1015.6 |
| 20260505230506 | 62 | 217 | 0.9 | 5.2 | 0.00 | 0.00 | 0.00 | 73 | 1015.5 |
| 20260505230018 | 62 | 174 | 1.7 | 5.2 | 0.00 | 0.00 | 0.00 | 73 | 1015.6 |